Flag for United Arab Emirates Weather past 2 weeks in Abu Dhabi, Abu Dhabi, United Arab Emirates

81 °F

Passing clouds.

Feels Like: 81 °F
Forecast: 76 / 80 °F
Wind: 14 mph from Northwest

Location: Abu Dhabi Bateen Airport

Current Time: Nov 29, 2015 at 4:29:30 PM

Latest Report: Nov 29, 2015 at 4:00 PM

Visibility: N/A

Pressure: 29.98 "Hg

Humidity: 51%

Dew point: 61 °F

Historic Weather in Abu Dhabi — Graph


Abu Dhabi temperature yesterday

Maximum temperature yesterday: 81 °F (at 11:00 AM)
Minimum temperature yesterday: 75 °F (at 4:00 AM)
Average temperature yesterday: 78 °F

Past Weeks' High & Low Weather Summary

High90 °F (Nov 16, 1:00 PM)88% (Nov 17, 7:00 AM)30.12 "Hg (Nov 17, 7:00 AM)
Low66 °F (Nov 23, 5:00 AM)22% (Nov 17, 2:00 PM)29.89 "Hg (Nov 17, 4:00 PM)
Average78 °F56%29.99 "Hg
* Reported Nov 14 3:00 PM — Nov 29 3:00 PM, Abu Dhabi, Weather by CustomWeather, © 2015

Note: Actual official high and low records may vary slightly from our data, if they occured in-between our weather recording intervals... More about our weather records


Abu Dhabi weather history for previous 24 hours

Time TempWeatherWind HumidityBarometerVisibility
3:00 PM
Sun, Nov 29
82 °FPassing clouds.13 mph51%29.98 "HgN/A
2:00 PM81 °FScattered clouds.10 mph58%29.98 "HgN/A
1:00 PM82 °FScattered clouds.8 mph55%30.01 "HgN/A
12:00 PM81 °FScattered clouds.5 mph62%30.04 "HgN/A
11:00 AM79 °FScattered clouds.5 mph70%30.04 "Hg5 mi
10:00 AM75 °FPassing clouds.6 mph78%30.07 "Hg6 mi
9:00 AM73 °FScattered clouds.6 mph83%30.07 "Hg4 mi
8:00 AM72 °FPassing clouds.5 mph88%30.04 "Hg4 mi
7:00 AM70 °FPassing clouds.5 mph88%30.01 "Hg4 mi
6:00 AM72 °FPassing clouds.5 mph88%29.98 "Hg4 mi
5:00 AM70 °FPassing clouds.6 mph88%29.98 "Hg5 mi
4:00 AM72 °FPassing clouds.5 mph88%29.98 "Hg5 mi
3:00 AM72 °FPassing clouds.3 mph88%29.98 "Hg5 mi
2:00 AM73 °FPassing clouds.5 mph83%29.98 "Hg5 mi
1:00 AM75 °FPassing clouds.2 mph78%30.01 "HgN/A
12:00 AM75 °FPassing clouds.3 mph74%30.01 "HgN/A
11:00 PM
Sat, Nov 28
77 °FPassing clouds.5 mph69%30.01 "HgN/A
10:00 PM77 °FPassing clouds.3 mph69%30.01 "HgN/A
9:00 PM77 °FPassing clouds.6 mph69%30.01 "HgN/A
8:00 PM77 °FPassing clouds.8 mph69%30.01 "HgN/A
7:00 PM77 °FPassing clouds.9 mph65%29.98 "HgN/A
6:00 PM77 °FPassing clouds.12 mph65%29.98 "HgN/A
5:00 PM79 °FScattered clouds.15 mph61%29.98 "HgN/A
4:00 PM79 °FScattered clouds.13 mph61%29.95 "HgN/A
Weather by CustomWeather, © 2015

See weather overviewHow to use our weather pages